Location: Bratislava
(48.1500°N, 17.1170°E)
Time: 06:25:46
(UTC+01:00)

N. Korean satellite - Pass Details

Date: 26 January 2019
Orbit: 456 x 510 km, 97.2° (Epoch: 21 February)

Event Time Altitude Azimuth Distance (km) Brightness Sun altitude
Rises 17:09:00 0° 166° (SSE) 2,591 10.4 -5.1°
Reaches altitude 10° 17:11:04 10° 166° (SSE) 1,717 9.5 -5.4°
Maximum altitude 17:14:47 90° 267° (W) 517 6.7 -5.9°
Drops below altitude 10° 17:18:33 10° 347° (NNW) 1,743 9.3 -6.5°
Sets 17:20:40 0° 348° (NNW) 2,634 10.2 -6.9°
